Location: Unspecified
(0.0000°N, 0.0000°E)
Time: 11:36:28
(UTC+00:00)

STARLINK-36491 - Pass Details

Date: 20 February 2026
Orbit: 482 x 484 km, 43.0° (Epoch: 8 March)

Event Time Altitude Azimuth Distance (km) Brightness Sun altitude
Rises 19:05:02 0° 257° (WSW) 2,529 ? -12.6°
Reaches altitude 10° 19:08:07 10° 284° (WNW) 1,650 ? -13.4°
Maximum altitude 19:10:03 14° 316° (NW) 1,440 ? -13.8°
Drops below altitude 10° 19:11:59 10° 347° (NNW) 1,649 ? -14.3°
Enters shadow 19:14:35 - 11° (N) 2,361 ? -15.0°
